{"data":{"norad_id":67938,"intl_designator":"2026-037G","name":"STARLINK-36371","alt_names":[],"object_type":"PAYLOAD","status":"ACTIVE","operator":null,"country":"US","launch_date":"2026-02-24","launch_site_code":"AFETR","launch_vehicle":null,"mission":null,"orbit_class":"UNKNOWN","rcs_meters":null,"size_class":null,"mass_kg":null,"dimensions":null,"purposes":["comms"],"wikipedia_slug":null,"has_3d_model":false,"image_url":null,"decayed_at":null,"tle_current":{"epoch":"2026-09-19T04:44:38.143680Z","epoch_age_seconds":175784,"freshness":"STALE","line1":"1 67938U 26037G   26262.19766370  .00009843  00000+0  36666-3 0  9991","line2":"2 67938  42.9991 178.0332 0001304 274.3731  85.6972 15.27587137 32938","mean_motion":15.27587137,"eccentricity":0.0001304,"inclination_deg":42.9991,"raan_deg":178.0332,"arg_perigee_deg":274.3731,"mean_anomaly_deg":85.6972,"bstar":0.00036666,"rev_number":3293,"period_min":94.266308292435,"perigee_km":482.13302949715,"apogee_km":483.92242125752,"semimajor_km":6861.1647253773,"source":"CELESTRAK","updated_at":"2026-09-20T09:00:43.707815Z"}}}